Location: Czu?�w
(50.1404°N, 18.9919°E)
Time: 12:10:03
(UTC+00:00)

Cosmos 2082 - Pass Details

Date: 27 October 2020
Orbit: 832 x 857 km, 71.0° (Epoch: 24 November)

Event Time Altitude Azimuth Distance (km) Brightness Sun altitude
Rises 16:55:31 0° 332° (NNW) 3,436 7.2 -14.4°
Reaches altitude 10° 16:58:01 10° 336° (NNW) 2,499 6.4 -14.8°
Maximum altitude 17:03:42 59° 56° (NE) 985 3.8 -15.7°
Enters shadow 17:08:31 14° 134° (SE) 2,185 5.4 -16.5°
